| time (UTC) | temp C | wind direction | speed KPH | gust KPH | rain 1hr cm | rain 24hr cm | rain mn cm | humidity % | barometer mb |
| 20260504204544 | 27 | 226 | 11.3 | 14.5 | 0.00 | 0.00 | 0.00 | 39 | 1000.8 |
| 20260504204043 | 27 | 182 | 6.4 | 9.7 | 0.00 | 0.00 | 0.00 | 38 | 1000.9 |
| 20260504203541 | 27 | 271 | 16.1 | 20.9 | 0.00 | 0.00 | 0.00 | 40 | 1000.9 |
| 20260504203038 | 27 | 223 | 9.7 | 11.3 | 0.00 | 0.00 | 0.00 | 39 | 1001.0 |
| 20260504202533 | 27 | 258 | 11.3 | 14.5 | 0.00 | 0.00 | 0.00 | 41 | 1001.2 |
| 20260504202030 | 27 | 211 | 9.7 | 11.3 | 0.00 | 0.00 | 0.00 | 37 | 1000.9 |
| 20260504201527 | 27 | 211 | 12.9 | 17.7 | 0.00 | 0.00 | 0.00 | 38 | 1001.0 |
| 20260504201025 | 27 | 206 | 11.3 | 16.1 | 0.00 | 0.00 | 0.00 | 40 | 1001.0 |
| 20260504200521 | 27 | 244 | 17.7 | 20.9 | 0.00 | 0.00 | 0.00 | 37 | 1001.2 |
| 20260504200018 | 26 | 229 | 6.4 | 6.4 | 0.00 | 0.00 | 0.00 | 43 | 1001.2 |
| 20260504195514 | 27 | 242 | 12.9 | 16.1 | 0.00 | 0.00 | 0.00 | 38 | 1001.2 |
| 20260504195011 | 26 | 292 | 8.0 | 11.3 | 0.00 | 0.00 | 0.00 | 40 | 1001.1 |
| 20260504194507 | 27 | 201 | 16.1 | 17.7 | 0.00 | 0.00 | 0.00 | 39 | 1001.2 |
| 20260504194003 | 26 | 235 | 12.9 | 14.5 | 0.00 | 0.00 | 0.00 | 40 | 1001.1 |
| 20260504193500 | 26 | 234 | 12.9 | 12.9 | 0.00 | 0.00 | 0.00 | 38 | 1001.5 |
| 20260504192959 | 26 | 173 | 12.9 | 14.5 | 0.00 | 0.00 | 0.00 | 40 | 1001.5 |
| 20260504192456 | 26 | 224 | 12.9 | 16.1 | 0.00 | 0.00 | 0.00 | 41 | 1001.4 |
| 20260504191955 | 26 | 236 | 11.3 | 12.9 | 0.00 | 0.00 | 0.00 | 39 | 1001.4 |
| 20260504191452 | 26 | 248 | 16.1 | 17.7 | 0.00 | 0.00 | 0.00 | 38 | 1001.5 |
| 20260504190947 | 26 | 212 | 6.4 | 6.4 | 0.00 | 0.00 | 0.00 | 39 | 1001.5 |
| 20260504190443 | 26 | 248 | 6.4 | 9.7 | 0.00 | 0.00 | 0.00 | 40 | 1001.4 |
| 20260504185940 | 26 | 272 | 6.4 | 6.4 | 0.00 | 0.00 | 0.00 | 42 | 1001.6 |
| 20260504185437 | 26 | 265 | 8.0 | 11.3 | 0.00 | 0.00 | 0.00 | 42 | 1001.8 |
| 20260504184933 | 25 | 243 | 9.7 | 12.9 | 0.00 | 0.00 | 0.00 | 43 | 1001.6 |
| 20260504184429 | 26 | 226 | 8.0 | 9.7 | 0.00 | 0.00 | 0.00 | 41 | 1001.9 |
| 20260504183925 | 26 | 214 | 9.7 | 11.3 | 0.00 | 0.00 | 0.00 | 43 | 1001.5 |
| 20260504183423 | 25 | 230 | 4.8 | 6.4 | 0.00 | 0.00 | 0.00 | 43 | 1001.8 |
| 20260504182921 | 25 | 205 | 9.7 | 12.9 | 0.00 | 0.00 | 0.00 | 45 | 1001.8 |
| 20260504182417 | 25 | 268 | 8.0 | 11.3 | 0.00 | 0.00 | 0.00 | 44 | 1001.8 |
| 20260504181914 | 25 | 188 | 11.3 | 16.1 | 0.00 | 0.00 | 0.00 | 44 | 1001.8 |
| 20260504181412 | 25 | 260 | 9.7 | 12.9 | 0.00 | 0.00 | 0.00 | 45 | 1001.7 |
| 20260504180910 | 25 | 255 | 12.9 | 17.7 | 0.00 | 0.00 | 0.00 | 42 | 1001.8 |
| 20260504180409 | 25 | 202 | 19.3 | 22.5 | 0.00 | 0.00 | 0.00 | 43 | 1001.8 |
| 20260504175906 | 25 | 228 | 8.0 | 9.7 | 0.00 | 0.00 | 0.00 | 48 | 1002.0 |
| 20260504175402 | 25 | 233 | 8.0 | 11.3 | 0.00 | 0.00 | 0.00 | 43 | 1002.0 |
| 20260504174901 | 25 | 222 | 8.0 | 9.7 | 0.00 | 0.00 | 0.00 | 43 | 1001.7 |
| 20260504174358 | 24 | 235 | 9.7 | 11.3 | 0.00 | 0.00 | 0.00 | 45 | 1002.2 |
| 20260504173855 | 25 | 186 | 12.9 | 14.5 | 0.00 | 0.00 | 0.00 | 42 | 1002.2 |
| 20260504173351 | 24 | 291 | 14.5 | 17.7 | 0.00 | 0.00 | 0.00 | 43 | 1002.0 |
| 20260504172849 | 24 | 250 | 19.3 | 24.1 | 0.00 | 0.00 | 0.00 | 44 | 1002.2 |
| 20260504172345 | 24 | 250 | 11.3 | 16.1 | 0.00 | 0.00 | 0.00 | 44 | 1002.2 |
| 20260504171841 | 24 | 239 | 12.9 | 14.5 | 0.00 | 0.00 | 0.00 | 44 | 1002.0 |
| 20260504171338 | 24 | 283 | 6.4 | 6.4 | 0.00 | 0.00 | 0.00 | 46 | 1002.5 |
| 20260504170836 | 24 | 245 | 9.7 | 12.9 | 0.00 | 0.00 | 0.00 | 45 | 1002.6 |
| 20260504170332 | 23 | 236 | 11.3 | 16.1 | 0.00 | 0.00 | 0.00 | 43 | 1002.5 |
| 20260504160250 | 22 | 196 | 9.7 | 11.3 | 0.00 | 0.00 | 0.00 | 48 | 1002.9 |
| 20260504150716 | 21 | 187 | 8.0 | 9.7 | 0.00 | 0.00 | 0.00 | 50 | 1002.7 |
| 20260504150213 | 21 | 242 | 14.5 | 14.5 | 0.00 | 0.00 | 0.00 | 48 | 1002.8 |
| 20260504141142 | 20 | 218 | 12.9 | 16.1 | 0.00 | 0.00 | 0.00 | 51 | 1003.1 |
| 20260504140639 | 20 | 270 | 12.9 | 16.1 | 0.00 | 0.00 | 0.00 | 51 | 1003.1 |
| 20260504140134 | 20 | 238 | 8.0 | 9.7 | 0.00 | 0.00 | 0.00 | 52 | 1003.2 |
| 20260504130602 | 18 | 205 | 12.9 | 16.1 | 0.00 | 0.00 | 0.00 | 57 | 1003.3 |
| 20260504110450 | 16 | 163 | 6.4 | 9.7 | 0.00 | 0.00 | 0.00 | 65 | 1003.5 |
| 20260504100412 | 15 | 233 | 12.9 | 14.5 | 0.00 | 0.00 | 0.00 | 64 | 1004.4 |
| 20260504081806 | 14 | 147 | 1.6 | 3.2 | 0.00 | 0.00 | 0.00 | 74 | 1005.5 |
| 20260504081302 | 14 | 144 | 1.6 | 1.6 | 0.00 | 0.00 | 0.00 | 72 | 1005.9 |
| 20260504080758 | 14 | 123 | 1.6 | 1.6 | 0.00 | 0.00 | 0.00 | 73 | 1005.8 |
| 20260504080255 | 14 | 135 | 0.0 | 1.6 | 0.00 | 0.00 | 0.00 | 75 | 1005.7 |
| 20260504070223 | 15 | 154 | 0.0 | 0.0 | 0.00 | 0.00 | 0.00 | 65 | 1006.2 |
| 20260504060143 | 17 | 203 | 3.2 | 3.2 | 0.00 | 0.00 | 0.00 | 56 | 1007.3 |
| 20260504050611 | 15 | 145 | 0.0 | 0.0 | 0.00 | 0.00 | 0.00 | 63 | 1007.5 |
| 20260504050108 | 15 | 157 | 1.6 | 1.6 | 0.00 | 0.00 | 0.00 | 64 | 1007.7 |
| 20260504045605 | 15 | 158 | 0.0 | 0.0 | 0.00 | 0.00 | 0.00 | 63 | 1007.8 |
| 20260504045100 | 16 | 158 | 0.0 | 0.0 | 0.00 | 0.00 | 0.00 | 57 | 1007.5 |
| 20260504044558 | 16 | 158 | 0.0 | 0.0 | 0.00 | 0.00 | 0.00 | 56 | 1007.5 |
| 20260504044054 | 16 | 158 | 0.0 | 0.0 | 0.00 | 0.00 | 0.00 | 55 | 1007.3 |
| 20260504043552 | 16 | 157 | 0.0 | 0.0 | 0.00 | 0.00 | 0.00 | 55 | 1007.4 |
| 20260504043049 | 16 | 160 | 0.0 | 1.6 | 0.00 | 0.00 | 0.00 | 54 | 1007.6 |
| 20260504042546 | 16 | 160 | 0.0 | 0.0 | 0.00 | 0.00 | 0.00 | 54 | 1007.7 |
| 20260504042043 | 16 | 160 | 0.0 | 0.0 | 0.00 | 0.00 | 0.00 | 54 | 1007.6 |
| 20260504041539 | 16 | 164 | 3.2 | 3.2 | 0.00 | 0.00 | 0.00 | 54 | 1007.5 |
| 20260504041035 | 16 | 141 | 0.0 | 0.0 | 0.00 | 0.00 | 0.00 | 57 | 1008.0 |
| 20260504040533 | 15 | 141 | 0.0 | 1.6 | 0.00 | 0.00 | 0.00 | 56 | 1008.0 |
| 20260504040029 | 15 | 140 | 0.0 | 0.0 | 0.00 | 0.00 | 0.00 | 57 | 1007.9 |
| 20260504035526 | 15 | 140 | 0.0 | 0.0 | 0.00 | 0.00 | 0.00 | 57 | 1007.9 |
| 20260504035023 | 15 | 140 | 0.0 | 0.0 | 0.00 | 0.00 | 0.00 | 59 | 1008.0 |
| 20260504034521 | 16 | 140 | 0.0 | 0.0 | 0.00 | 0.00 | 0.00 | 56 | 1007.9 |
| 20260504034017 | 16 | 140 | 0.0 | 0.0 | 0.00 | 0.00 | 0.00 | 57 | 1008.0 |
| 20260504033515 | 16 | 140 | 0.0 | 0.0 | 0.00 | 0.00 | 0.00 | 56 | 1008.0 |
| 20260504033012 | 15 | 140 | 0.0 | 0.0 | 0.00 | 0.00 | 0.00 | 58 | 1008.0 |
| 20260504032509 | 16 | 140 | 0.0 | 0.0 | 0.00 | 0.00 | 0.00 | 58 | 1008.0 |
| 20260504032006 | 16 | 139 | 0.0 | 0.0 | 0.00 | 0.00 | 0.00 | 56 | 1008.1 |
| 20260504031502 | 17 | 150 | 0.0 | 1.6 | 0.00 | 0.00 | 0.00 | 56 | 1008.1 |
| 20260504030959 | 17 | 151 | 0.0 | 1.6 | 0.00 | 0.00 | 0.00 | 52 | 1008.1 |
| 20260504030456 | 17 | 150 | 1.6 | 1.6 | 0.00 | 0.00 | 0.00 | 56 | 1008.1 |
| 20260504025952 | 17 | 150 | 0.0 | 0.0 | 0.00 | 0.00 | 0.00 | 53 | 1008.0 |
| 20260504025449 | 17 | 150 | 0.0 | 0.0 | 0.00 | 0.00 | 0.00 | 51 | 1008.0 |
| 20260504024946 | 16 | 150 | 1.6 | 1.6 | 0.00 | 0.00 | 0.00 | 56 | 1008.0 |
| 20260504024443 | 16 | 150 | 0.0 | 0.0 | 0.00 | 0.00 | 0.00 | 57 | 1008.1 |
| 20260504023940 | 17 | 150 | 0.0 | 0.0 | 0.00 | 0.00 | 0.00 | 54 | 1007.9 |
| 20260504023437 | 17 | 150 | 0.0 | 0.0 | 0.00 | 0.00 | 0.00 | 52 | 1008.0 |
| 20260504022932 | 17 | 150 | 0.0 | 0.0 | 0.00 | 0.00 | 0.00 | 52 | 1008.0 |
| 20260504022429 | 16 | 150 | 0.0 | 1.6 | 0.00 | 0.00 | 0.00 | 53 | 1008.0 |
| 20260504021926 | 17 | 150 | 0.0 | 0.0 | 0.00 | 0.00 | 0.00 | 57 | 1007.6 |
| 20260504021423 | 17 | 150 | 0.0 | 0.0 | 0.00 | 0.00 | 0.00 | 55 | 1007.7 |
| 20260504020920 | 16 | 150 | 0.0 | 0.0 | 0.00 | 0.00 | 0.00 | 57 | 1007.8 |
| 20260504020417 | 16 | 150 | 0.0 | 0.0 | 0.00 | 0.00 | 0.00 | 54 | 1007.7 |
| 20260504015913 | 16 | 150 | 0.0 | 0.0 | 0.00 | 0.00 | 0.00 | 54 | 1007.7 |
| 20260504015409 | 16 | 150 | 0.0 | 0.0 | 0.00 | 0.00 | 0.00 | 52 | 1007.9 |
| 20260504014905 | 17 | 150 | 0.0 | 0.0 | 0.00 | 0.00 | 0.00 | 51 | 1007.7 |
| 20260504014401 | 17 | 150 | 0.0 | 0.0 | 0.00 | 0.00 | 0.00 | 49 | 1007.7 |
| 20260504013858 | 18 | 150 | 0.0 | 0.0 | 0.00 | 0.00 | 0.00 | 48 | 1007.8 |
| 20260504013357 | 18 | 150 | 0.0 | 0.0 | 0.00 | 0.00 | 0.00 | 47 | 1007.9 |
| 20260504012853 | 18 | 149 | 0.0 | 0.0 | 0.00 | 0.00 | 0.00 | 47 | 1007.8 |
| 20260504012351 | 18 | 149 | 0.0 | 1.6 | 0.00 | 0.00 | 0.00 | 47 | 1007.7 |
| 20260504011848 | 18 | 149 | 0.0 | 0.0 | 0.00 | 0.00 | 0.00 | 47 | 1007.7 |
| 20260504011344 | 19 | 149 | 0.0 | 0.0 | 0.00 | 0.00 | 0.00 | 48 | 1007.8 |
| 20260504010841 | 20 | 149 | 0.0 | 0.0 | 0.00 | 0.00 | 0.00 | 44 | 1007.7 |
| 20260504010336 | 20 | 149 | 0.0 | 0.0 | 0.00 | 0.00 | 0.00 | 43 | 1007.5 |
| 20260504005833 | 20 | 149 | 0.0 | 0.0 | 0.00 | 0.00 | 0.00 | 43 | 1007.7 |
| 20260504005330 | 20 | 34 | 0.0 | 0.0 | 0.00 | 0.00 | 0.00 | 42 | 1007.6 |
| 20260504004827 | 21 | 34 | 0.0 | 0.0 | 0.00 | 0.00 | 0.00 | 43 | 1007.8 |
| 20260504004325 | 21 | 32 | 0.0 | 0.0 | 0.00 | 0.00 | 0.00 | 43 | 1007.9 |
| 20260504003821 | 21 | 32 | 0.0 | 0.0 | 0.00 | 0.00 | 0.00 | 42 | 1007.9 |
| 20260504003318 | 21 | 32 | 0.0 | 0.0 | 0.00 | 0.00 | 0.00 | 41 | 1007.9 |
| 20260504002815 | 22 | 114 | 0.0 | 0.0 | 0.00 | 0.00 | 0.00 | 40 | 1008.2 |
| 20260504002312 | 22 | 114 | 0.0 | 0.0 | 0.00 | 0.00 | 0.00 | 42 | 1007.9 |
| 20260504001810 | 22 | 129 | 0.0 | 0.0 | 0.00 | 0.00 | 0.00 | 40 | 1008.0 |
| 20260504001306 | 22 | 165 | 0.0 | 0.0 | 0.00 | 0.00 | 0.00 | 40 | 1008.3 |
| 20260504000803 | 22 | 36 | 0.0 | 0.0 | 0.00 | 0.00 | 0.00 | 41 | 1008.1 |
| 20260504000300 | 23 | 353 | 0.0 | 1.6 | 0.00 | 0.00 | 0.00 | 40 | 1008.1 |
| 20260503235758 | 23 | 101 | 0.0 | 1.6 | 0.00 | 0.00 | 0.00 | 40 | 1008.0 |
| 20260503235255 | 24 | 56 | 0.0 | 1.6 | 0.00 | 0.00 | 0.00 | 38 | 1008.1 |
| 20260503234753 | 25 | 257 | 0.0 | 0.0 | 0.00 | 0.00 | 0.00 | 38 | 1008.0 |
| 20260503234251 | 25 | 314 | 4.8 | 4.8 | 0.00 | 0.00 | 0.00 | 34 | 1008.1 |
| 20260503233748 | 25 | 261 | 1.6 | 1.6 | 0.00 | 0.00 | 0.00 | 35 | 1008.3 |
| 20260503233243 | 25 | 256 | 1.6 | 1.6 | 0.00 | 0.00 | 0.00 | 35 | 1008.1 |
| 20260503232741 | 25 | 265 | 4.8 | 6.4 | 0.00 | 0.00 | 0.00 | 35 | 1007.9 |
| 20260503232238 | 25 | 301 | 6.4 | 6.4 | 0.00 | 0.00 | 0.00 | 34 | 1008.3 |
| 20260503231736 | 25 | 275 | 4.8 | 4.8 | 0.00 | 0.00 | 0.00 | 34 | 1008.4 |
| 20260503231232 | 25 | 262 | 3.2 | 3.2 | 0.00 | 0.00 | 0.00 | 34 | 1008.4 |
| 20260503230728 | 26 | 261 | 6.4 | 9.7 | 0.00 | 0.00 | 0.00 | 33 | 1008.3 |
| 20260503230226 | 25 | 233 | 4.8 | 4.8 | 0.00 | 0.00 | 0.00 | 35 | 1008.5 |
| 20260503225723 | 25 | 287 | 4.8 | 9.7 | 0.00 | 0.00 | 0.00 | 34 | 1008.5 |
| 20260503225223 | 25 | 278 | 9.7 | 11.3 | 0.00 | 0.00 | 0.00 | 33 | 1008.5 |
| 20260503224720 | 25 | 266 | 9.7 | 11.3 | 0.00 | 0.00 | 0.00 | 33 | 1008.5 |
| 20260503224218 | 25 | 245 | 6.4 | 9.7 | 0.00 | 0.00 | 0.00 | 35 | 1008.5 |
| 20260503223715 | 26 | 261 | 9.7 | 11.3 | 0.00 | 0.00 | 0.00 | 33 | 1008.1 |
| 20260503223213 | 25 | 285 | 6.4 | 6.4 | 0.00 | 0.00 | 0.00 | 34 | 1008.2 |
| 20260503222709 | 25 | 263 | 6.4 | 6.4 | 0.00 | 0.00 | 0.00 | 34 | 1008.3 |
| 20260503222207 | 25 | 239 | 8.0 | 9.7 | 0.00 | 0.00 | 0.00 | 34 | 1008.3 |
| 20260503221706 | 25 | 241 | 3.2 | 4.8 | 0.00 | 0.00 | 0.00 | 36 | 1008.5 |
| 20260503221203 | 25 | 249 | 3.2 | 4.8 | 0.00 | 0.00 | 0.00 | 33 | 1008.5 |
| 20260503220659 | 26 | 255 | 9.7 | 12.9 | 0.00 | 0.00 | 0.00 | 34 | 1008.5 |
| 20260503220156 | 25 | 313 | 8.0 | 11.3 | 0.00 | 0.00 | 0.00 | 33 | 1008.6 |
| 20260503215653 | 25 | 301 | 8.0 | 12.9 | 0.00 | 0.00 | 0.00 | 32 | 1008.6 |
| 20260503215149 | 26 | 252 | 8.0 | 11.3 | 0.00 | 0.00 | 0.00 | 35 | 1008.6 |
| 20260503214649 | 25 | 276 | 4.8 | 4.8 | 0.00 | 0.00 | 0.00 | 33 | 1008.7 |
| 20260503214144 | 25 | 292 | 9.7 | 11.3 | 0.00 | 0.00 | 0.00 | 35 | 1008.5 |
| 20260503213643 | 25 | 286 | 6.4 | 9.7 | 0.00 | 0.00 | 0.00 | 32 | 1008.6 |
| 20260503213140 | 25 | 270 | 6.4 | 11.3 | 0.00 | 0.00 | 0.00 | 34 | 1009.0 |
| 20260503212637 | 25 | 264 | 9.7 | 12.9 | 0.00 | 0.00 | 0.00 | 33 | 1009.1 |
| 20260503212134 | 25 | 275 | 9.7 | 11.3 | 0.00 | 0.00 | 0.00 | 33 | 1008.9 |
| 20260503211633 | 25 | 258 | 9.7 | 14.5 | 0.00 | 0.00 | 0.00 | 34 | 1008.9 |
| 20260503211133 | 25 | 267 | 8.0 | 11.3 | 0.00 | 0.00 | 0.00 | 38 | 1008.9 |
| 20260503210629 | 25 | 275 | 9.7 | 11.3 | 0.00 | 0.00 | 0.00 | 35 | 1009.1 |
| 20260503210126 | 25 | 242 | 17.7 | 20.9 | 0.00 | 0.00 | 0.00 | 34 | 1009.2 |
| 20260503205622 | 25 | 270 | 6.4 | 6.4 | 0.00 | 0.00 | 0.00 | 37 | 1009.4 |
| 20260503205118 | 25 | 269 | 9.7 | 14.5 | 0.00 | 0.00 | 0.00 | 38 | 1009.4 |